Regional Weather Roundup
Issued by NWS Portland, ME

Home | Current Version | Previous Version | Text Only | Print | Product List | Glossary On
Versions: 1 2 3 4 5 6 7 8 9 10 11 12 13 14 15 16 17 18 19 20 21 22 23 24 25 26 27 28 29 30 31 32 33 34 35 36 37 38 39 40 41 42 43 44 45 46 47 48 49 50
000
ASUS41 KGYX 300705
RWRGYX
WEATHER ROUNDUP FOR MAINE AND NEW HAMPSHIRE
NATIONAL WEATHER SERVICE GRAY ME
300 AM EDT SAT AUG 30 2014

MEZ002-005-006-010-012-015-018-020-021-024-026-027-029-300800-
MAINE

CITY           SKY/WX    TMP DP  RH WIND       PRES   REMARKS
PORTLAND       CLEAR     53  51  93 SW3       30.29S
SANFORD        CLEAR     48  43  81 CALM      30.29S
BAR HARBOR     CLEAR     48  48 100 CALM      30.27F
WISCASSET      PTCLDY    48  46  93 CALM      30.30R
ROCKLAND       CLEAR     48  46  93 W5        30.27S
FRYEBURG       CLEAR     50  49  96 CALM      30.27F
LEWISTONAUBURN CLOUDY    52  46  82 CALM      30.28S
AUGUSTA        CLEAR     53  50  89 S5        30.28R
WATERVILLE     PTCLDY    50  48  93 SW5       30.23S
BANGOR         PTCLDY    49  46  90 CALM      30.26F
GREENVILLE       N/A     53  45  74 S3        30.22F
MILLINOCKET    CLEAR     48  45  89 CALM      30.24S
HOULTON        CLEAR     47  44  90 S3        30.21F
PRESQUE ISLE   CLEAR     45  39  81 CALM      30.19S
FRENCHVILLE    CLEAR     49  46  90 S7        30.18R
CARIBOU        CLEAR     49  45  86 SW3       30.19S
$$

NHZ002-005-008-009-011-012-014-300800-
NEW HAMPSHIRE

CITY           SKY/WX    TMP DP  RH WIND       PRES   REMARKS
PORTSMOUTH     PTCLDY    54  52  94 S1        30.27F
ROCHESTER      CLEAR     53  50  89 CALM      30.28F
NASHUA         CLEAR     54  53  96 CALM      30.29S
MANCHESTER     CLEAR     57  53  86 CALM      30.27S
CONCORD        CLEAR     53  51  93 CALM      30.28S
LACONIA        CLEAR     57  52  82 CALM      30.26S
PLYMOUTH       CLOUDY    58  58 100 CALM      30.27S
BERLIN         FOG       44  44 100 CALM      30.26S VSB 1/4
WHITEFIELD     CLEAR     48  45  89 CALM      30.24F
JAFFREY        CLEAR     53  52  96 CALM      30.29F
LEBANON        CLEAR     51  48  89 CALM      30.25S
MT WASHINGTON  FOG       43  43 100 SW35        N/A  VSB 0
$$

VTZ005-007-008-300800-
VERMONT

CITY           SKY/WX    TMP DP  RH WIND       PRES   REMARKS
ST JOHNSBURY     N/A     51  50  96 MISG      30.22F
MONTPELIER     CLEAR     51  51 100 CALM      30.26F FOG
BURLINGTON     PTCLDY    63  54  72 S7        30.18F
$$

MAZ007-012-024-CTZ003-RIZ002-NYZ038-NYZ072-300800-
SOUTHERN NEW ENGLAND AND NY

CITY           SKY/WX    TMP DP  RH WIND       PRES   REMARKS
BOSTON         CLEAR     59  55  87 S6        30.29F
WORCESTER      CLEAR     56  54  93 SW7       30.29S
NANTUCKET      CLEAR     51  46  83 CALM      30.31R
PROVIDENCE     CLEAR     57  54  89 CALM      30.30S
HARTFORD       CLEAR     58  53  84 CALM      30.27S
ALBANY         CLEAR     61  55  81 S6        30.23S
NEW YORK CITY  PTCLDY    68  55  63 SE5       30.25S
$$

ANZ081-ANZ082-ANZ150-NHZ014-MEZ023>029-300800-
COASTAL MARINE OBSERVATIONS

STATION/POSITION TIME  TEMP    WIND        PRES    WAVE
                       AIR SEA DIR/SP/G            HT/PER
                 (UTC) (F)     (DEG/KT/KT) (MB)    (FT/S)
MATINICUS ROCK   0600          270/  8/  8 1024.9R
PORTLAND WX BUOY 0650   60 62  240/  8/ 10 1025.1S   2/10
WELLS            0600   56 61  250/  2/  3 1024.8S
ISLE OF SHOALS   0600   62     220/ 11/ 12 1025.3R
JEFFREYS LEDGE   0621      65                N/A     3/10
CASHES LEDGE BUO 0650   64 65              1025.1R   3/11
$$

.............KEY..............
   WCI - WIND CHILL
   TC  - TEMPERATURE IN CELSIUS
   VSB - VISIBILITY IN MILES
   HX  - HEAT INDEX
   FAIR- INDICATES FEW OR NO CLOUDS BELOW 12,000 FT, WITH NO
         SIGNIFICANT WEATHER AND/OR OBSTRUCTIONS TO VISIBILITY.




USA.gov is the U.S. government's official web portal to all federal, state and local government web resources and services.